Location: Putah Creek Observatory
(38.7021°N, 122.3865°W)
Time: 15:19:35
(UTC-07:00)

ISS - Pass Details

Date: 25 March 2019
Orbit: 408 x 410 km, 51.6° (Epoch: 26 April)

Event Time Altitude Azimuth Distance (km) Brightness Sun altitude
Rises 21:29:27 0° 292° (WNW) 2,334 1.5 -24.1°
Reaches altitude 10° 21:33:01 10° 333° (NNW) 1,474 -0.3 -24.7°
Maximum altitude 21:33:52 11° 348° (NNW) 1,430 -0.6 -24.9°
Enters shadow 21:34:41 10° 2° (N) 1,471 -0.8 -25.0°
